This demonstration page uses our WeatherBlox Daily Observations layout. Learn more.

Hourly Observations for February 8, 2020

Temp ( °F °C ) Dew Point ( °F °C ) Humidity (%) Winds ( mph kmh ) Pressure ( in mb ) Visibility ( mi km ) Precip ( " mm )
12:54 am 00:54 Mostly Clear 18 -7.8 12 -11.1 77 77 Calm 30.17 1022 10 16.0934 0 0
1:54 am 01:54 Clear 16 -8.9 12 -11.1 84 84 Calm 30.17 1022 10 16.0934 0 0
2:54 am 02:54 Mostly Cloudy 14 -10 9 -12.8 80 80 NNE 3 6 30.19 1022 10 16.0934 0 0
3:54 am 03:54 Cloudy 16 -8.9 12 -11.1 84 84 Calm 30.18 1022 10 16.0934 0 0
4:54 am 04:54 Cloudy 19 -7.2 15 -9.4 84 84 Calm 30.18 1022 10 16.0934 0 0
5:54 am 05:54 Cloudy 20 -6.7 15 -9.4 81 81 S 5 7 30.19 1022 10 16.0934 0 0
6:54 am 06:54 Clear 17 -8.3 12 -11.1 80 80 SE 5 7 30.19 1022 10 16.0934 0 0
7:54 am 07:54 Sunny 15 -9.4 11 -11.7 84 84 S 6 9 30.2 1023 10 16.0934 0 0
8:54 am 08:54 Sunny 20 -6.7 16 -8.9 85 85 S 7 11 30.21 1023 10 16.0934 0 0
9:54 am 09:54 Sunny 25 -3.9 19 -7.2 78 78 S 12 19 30.2 1023 10 16.0934 0 0
10:54 am 10:54 Sunny 30 -1.1 20 -6.7 66 66 SSW 10 17 30.18 1022 10 16.0934 0 0
11:54 am 11:54 Cloudy 33 0.6 22 -5.6 64 64 SSW 13 20 30.17 1022 10 16.0934 0 0
12:54 pm 12:54 Cloudy 36 2.2 23 -5 59 59 S 10 17 30.11 1020 10 16.0934 0 0
1:54 pm 13:54 Sunny 39 3.9 24 -4.4 55 55 SSE 10 17 30.07 1018 10 16.0934 0 0
2:54 pm 14:54 Sunny 41 5 24 -4.4 51 51 SSE 17 28 30.03 1017 10 16.0934 0 0
3:54 pm 15:54 Sunny 42 5.6 24 -4.4 49 49 S 22 35 30 1016 10 16.0934 0 0
4:54 pm 16:54 Sunny 41 5 24 -4.4 51 51 SSE 20 31 29.98 1015 10 16.0934 0 0
5:54 pm 17:54 Clear 39 3.9 25 -3.9 57 57 SE 9 15 29.97 1015 10 16.0934 0 0
6:54 pm 18:54 Clear 38 3.3 25 -3.9 60 60 SSE 14 22 29.96 1015 10 16.0934 0 0
7:54 pm 19:54 Clear 38 3.3 25 -3.9 60 60 SSE 16 26 29.95 1014 10 16.0934 0 0
8:54 pm 20:54 Clear 36 2.2 25 -3.9 64 64 SSE 17 28 29.94 1014 10 16.0934 0 0
9:54 pm 21:54 Mostly Clear 35 1.7 25 -3.9 67 67 SSE 12 19 29.94 1014 10 16.0934 0 0
10:54 pm 22:54 Clear 36 2.2 26 -3.3 67 67 SSE 12 19 29.91 1013 10 16.0934 0 0
11:54 pm 23:54 Clear 36 2.2 27 -2.8 70 70 SSE 14 22 29.91 1013 10 16.0934 0 0

Powered by AerisWeather